Theta_e
314 316 317 316 315 316 318 318 319 319 317 316 315 314 316 318 319 319 318 319 320 326 326 327 329 335 348 351 352 351 352 354 356 361 359 352 347 346 346 342 337 331 330 331 331 329 328 329 335 341 343 342 340 337 334 332 325 322 323 327 332 334 334 337 338 338 339 335 331 332 334 338 340 341 342 342 342 342 342 342 343 341 343 342 341 341 340 340 340 339 338 338 337 337 336 334 329
314 316 316 316 318 320 321 319 318 317 315 313 313 314 316 318 320 319 318 321 326 329 328 331 334 339 347 350 349 351 352 351 351 355 353 348 347 345 344 341 335 330 330 331 331 329 330 334 338 343 344 343 341 337 334 330 324 323 326 331 334 333 335 337 339 339 339 337 334 334 336 339 341 341 341 341 341 341 341 341 341 340 340 341 341 340 340 340 339 339 339 338 336 335 333 329 327
315 318 319 319 321 321 321 318 317 316 315 313 312 315 317 317 318 319 323 327 332 330 330 338 345 344 347 352 349 352 353 349 350 352 350 349 348 345 344 340 334 332 331 331 330 329 335 339 341 344 345 344 341 338 334 327 323 326 330 333 334 334 337 338 340 340 338 334 332 333 336 338 340 341 341 341 340 340 340 340 340 339 339 339 340 339 339 339 339 339 338 337 334 333 330 326 328
316 319 322 323 319 317 321 322 321 317 314 314 313 318 319 319 317 321 331 335 335 333 333 342 352 349 349 353 349 351 353 348 350 352 352 350 347 346 344 339 335 334 332 331 329 331 338 341 343 344 344 343 341 338 332 326 326 330 333 334 335 336 338 340 340 339 336 331 328 329 332 336 337 340 340 340 339 339 340 339 340 339 339 339 339 339 338 339 339 338 337 336 334 332 328 324 329
317 318 321 324 319 316 322 324 324 319 316 316 314 319 320 320 320 324 332 335 335 334 331 341 352 351 350 352 351 354 354 350 349 350 351 349 347 346 343 338 336 337 335 332 329 334 340 342 344 344 344 343 341 337 331 328 330 333 334 334 337 339 339 341 340 338 333 330 330 329 329 332 336 338 338 338 338 338 337 337 338 339 339 339 339 338 339 339 339 338 337 336 333 330 326 325 329
315 317 320 323 320 316 320 322 322 319 319 320 318 320 321 320 323 324 327 329 332 332 333 347 352 352 353 350 351 354 353 354 350 349 350 347 347 345 341 338 339 341 339 334 331 336 341 343 344 344 344 343 340 336 332 331 333 335 335 335 338 340 340 341 340 338 335 332 332 330 329 331 333 336 336 336 336 337 337 337 338 339 338 339 339 338 339 339 339 338 337 335 332 331 328 327 329
315 317 319 320 318 317 321 321 320 319 320 322 321 321 321 320 323 322 323 324 326 326 333 349 349 351 355 351 352 352 349 352 350 350 349 347 347 345 340 339 342 344 340 336 331 335 340 341 342 343 343 342 339 336 333 334 336 335 334 336 339 340 341 341 341 338 334 332 331 331 331 333 334 336 335 335 336 337 338 338 339 338 337 338 338 338 339 339 339 338 337 335 334 334 333 330 328
316 316 317 318 317 318 321 320 320 321 321 322 320 320 322 320 323 321 322 320 324 323 327 343 348 354 355 352 356 353 348 350 350 351 350 347 346 344 342 342 344 343 341 335 329 335 339 339 341 343 342 340 340 338 336 337 337 335 335 337 340 341 341 341 340 337 332 331 331 331 333 335 336 337 337 336 336 337 338 338 338 338 337 337 338 338 338 339 339 338 337 334 334 335 334 331 329
314 315 316 316 316 316 317 318 318 320 320 320 319 320 322 320 320 321 320 319 322 322 325 340 350 360 355 353 357 353 350 351 351 351 350 348 346 343 343 344 345 344 340 333 330 337 339 339 340 341 342 341 341 340 338 338 336 335 336 339 341 342 341 341 339 335 332 332 333 333 335 336 337 337 337 336 336 335 335 336 336 337 338 338 337 337 338 338 338 337 336 334 334 334 332 331 330
313 314 317 318 316 313 311 313 315 317 318 318 317 319 320 319 320 319 320 320 319 322 336 346 350 357 355 354 358 354 351 351 351 351 351 350 347 344 344 345 345 344 340 333 335 339 341 340 341 341 341 341 340 340 340 338 336 336 338 340 342 341 341 339 336 333 332 333 335 337 337 337 338 337 338 337 335 333 333 334 335 335 336 336 336 336 337 337 336 337 335 333 333 333 332 331 329
314 314 317 318 316 313 311 311 312 315 316 317 317 318 320 319 320 320 320 320 318 321 337 351 352 354 356 356 357 353 350 350 351 351 351 350 349 348 346 346 345 344 338 335 339 341 342 342 341 341 340 341 341 340 339 338 337 338 340 342 341 341 340 337 333 332 333 335 337 338 337 338 338 338 338 337 335 333 332 333 335 334 333 333 334 336 337 337 337 338 336 333 333 333 333 331 329
315 316 316 316 317 316 314 313 313 315 316 316 317 317 319 320 320 319 319 318 320 317 327 348 352 354 357 358 357 351 350 351 350 351 350 349 348 348 348 347 346 343 337 332 337 341 342 342 341 341 340 342 341 339 338 338 339 341 342 341 341 340 337 333 332 333 334 336 338 338 338 338 338 338 339 337 335 334 331 333 335 335 333 332 333 335 338 338 337 338 338 336 335 334 333 332 330
315 315 315 316 318 317 316 314 315 318 317 317 318 319 319 319 320 319 321 318 319 317 329 350 350 354 358 357 355 354 354 351 350 350 349 346 345 347 346 345 344 342 338 331 335 339 341 341 341 341 340 341 341 339 338 339 341 342 342 340 340 337 333 331 333 335 335 336 338 338 338 338 338 338 338 337 336 335 332 332 334 335 335 335 334 336 337 337 338 338 338 336 335 334 333 332 331
315 314 314 316 317 315 314 313 314 314 314 318 320 321 320 320 322 321 322 320 321 327 339 351 348 355 358 355 356 355 355 351 349 349 346 345 344 345 344 343 343 342 338 334 338 340 340 341 342 341 340 340 340 340 339 341 342 342 341 339 337 332 331 333 335 337 337 338 338 338 338 338 338 338 338 337 337 335 333 333 334 336 336 335 335 336 335 334 335 336 336 335 334 333 332 332 331
315 315 315 315 315 315 315 314 314 312 313 320 319 321 322 322 323 323 323 322 331 337 342 346 344 357 359 355 356 353 352 351 349 346 344 344 343 342 343 343 343 341 338 338 340 341 341 341 341 341 341 341 340 341 341 342 342 341 339 336 332 330 332 336 337 337 337 338 339 338 338 338 337 337 337 337 336 336 334 334 334 335 335 334 333 332 331 328 328 329 331 333 333 333 331 331 331
314 315 316 316 314 313 314 315 316 313 314 320 319 322 322 320 322 325 323 323 336 340 339 341 341 352 355 353 353 350 351 350 348 344 343 342 340 340 343 344 343 341 340 340 340 341 342 341 341 342 343 342 341 342 342 342 341 339 336 331 329 330 334 336 337 336 337 339 338 337 337 337 336 336 336 336 336 336 335 335 335 335 335 334 331 327 326 324 323 324 325 327 329 330 331 331 332
313 315 315 315 314 313 314 315 315 314 316 319 319 319 319 320 322 326 325 331 342 342 341 343 341 347 350 350 351 349 351 350 347 344 341 339 337 338 341 343 343 343 341 341 341 342 341 339 341 343 343 342 341 341 340 340 339 336 334 331 330 333 335 335 335 336 338 339 338 337 337 337 336 335 335 335 334 334 335 336 335 335 335 335 330 325 323 322 322 323 322 323 324 327 330 332 332
314 315 315 314 314 313 314 315 316 317 318 319 319 320 320 320 323 326 325 336 345 345 343 343 345 349 349 350 350 350 351 348 344 340 338 338 338 337 339 341 343 344 342 342 342 342 340 339 341 341 340 340 339 339 338 338 336 335 334 334 335 335 335 335 335 337 338 338 337 336 336 336 335 334 334 333 333 333 334 335 335 335 336 334 330 325 323 323 322 323 323 323 323 325 329 331 331
314 316 316 314 314 314 315 316 317 318 319 319 319 319 321 320 326 331 326 333 343 348 347 347 351 352 351 349 350 350 347 341 337 337 338 338 338 337 338 340 343 342 341 341 342 342 339 338 339 339 338 337 337 336 336 335 335 335 335 337 338 337 335 334 336 338 337 336 336 335 335 335 333 333 334 334 334 334 334 335 334 334 335 334 331 326 323 323 322 322 323 324 325 326 327 329 330
314 315 316 315 315 315 315 316 316 317 318 319 319 318 320 322 326 332 329 332 340 346 349 351 353 354 351 349 350 348 341 336 336 338 338 338 337 337 338 340 342 342 341 341 341 341 339 339 339 338 337 335 334 334 332 333 336 336 336 338 339 337 335 335 336 337 335 335 335 334 334 334 333 334 336 336 336 335 334 334 332 333 334 334 332 327 324 324 323 323 323 325 327 328 329 330 331
314 315 314 315 315 315 315 317 316 317 319 319 320 318 319 321 323 330 331 336 342 345 346 350 353 352 350 349 349 345 338 337 338 338 339 338 337 337 338 340 341 342 340 340 340 340 339 339 338 337 335 333 330 331 332 334 337 337 337 338 337 336 335 335 337 336 334 334 334 334 334 334 334 335 337 338 337 335 334 333 332 334 333 333 332 329 328 327 326 325 326 327 328 330 332 332 333
314 314 315 315 315 315 316 317 317 316 318 318 319 318 318 320 321 325 330 340 345 343 341 347 351 350 350 350 346 340 338 338 338 338 338 338 338 338 339 340 342 342 340 340 340 340 340 339 339 337 335 334 331 331 334 336 337 337 337 338 336 334 335 335 336 335 334 334 333 333 334 334 335 335 336 336 336 335 334 334 334 334 333 334 333 331 332 332 330 329 329 330 329 330 332 332 333
314 313 316 316 315 316 316 316 317 318 317 318 318 318 317 318 318 320 329 340 341 338 338 344 349 348 349 349 343 340 341 340 339 338 338 338 338 337 339 340 341 342 341 340 339 340 340 340 339 338 336 337 335 334 335 337 337 337 336 336 335 335 336 336 335 334 334 333 332 333 335 335 335 335 334 334 335 335 334 335 335 335 335 335 334 332 334 334 333 333 332 332 331 331 331 331 331
313 313 314 316 316 316 316 316 317 318 318 318 317 318 317 317 318 317 328 336 335 336 337 340 345 347 347 346 342 342 341 340 338 338 338 338 337 337 339 341 342 342 341 340 340 340 340 339 340 338 338 338 338 337 336 337 337 337 336 335 335 335 336 336 335 334 333 333 333 334 335 335 335 334 333 333 334 334 334 334 335 335 335 335 335 334 334 334 334 334 333 333 333 332 332 331 330
313 313 314 315 317 316 317 316 316 317 318 318 317 317 316 317 318 316 326 333 331 334 335 339 345 345 344 344 342 341 340 340 339 336 337 338 337 338 339 341 341 341 341 340 339 339 339 340 339 338 338 338 338 337 336 337 337 337 337 336 335 335 335 335 335 334 332 333 334 335 335 334 335 334 334 333 334 334 334 335 335 335 335 335 335 334 334 335 335 334 333 334 333 333 332 330 329
313 314 314 315 316 316 317 316 316 317 317 318 317 317 317 317 318 314 323 333 331 332 334 340 346 344 343 343 342 340 341 343 339 335 337 337 337 339 340 340 341 341 340 341 340 339 339 339 339 339 337 337 338 337 337 338 338 337 337 336 335 335 335 335 336 336 334 334 334 334 334 333 334 334 334 334 334 334 334 335 334 334 334 334 334 334 334 334 334 334 334 333 333 332 331 330 329
313 314 315 315 316 316 316 316 317 317 316 317 316 316 317 316 318 314 322 332 332 332 334 341 345 344 343 342 341 341 342 342 337 335 337 337 338 340 341 341 340 341 340 341 340 339 339 338 339 339 337 337 338 338 337 338 337 337 337 336 335 335 336 336 335 335 334 334 334 333 333 332 333 334 334 333 333 333 334 334 333 333 333 333 333 333 334 333 333 333 333 333 332 332 331 331 330
313 314 314 314 315 315 317 316 316 317 317 317 316 316 317 317 316 314 320 327 331 332 332 340 344 343 343 342 341 340 340 337 335 338 339 338 339 340 342 341 340 340 339 340 340 339 338 338 339 339 338 338 339 339 338 337 336 337 337 337 336 335 335 335 334 333 333 333 333 334 333 333 333 333 333 333 333 333 333 333 333 333 333 333 333 333 333 333 333 333 332 332 332 332 331 332 331
314 314 313 314 315 315 316 316 316 317 317 317 316 315 314 315 316 316 317 320 328 332 332 340 342 342 342 341 340 338 337 335 337 340 339 338 339 340 341 341 341 339 338 339 338 338 338 338 339 339 338 338 339 340 338 336 335 335 335 337 336 334 334 334 333 332 332 333 333 334 333 333 332 333 333 333 333 334 333 333 332 333 333 333 333 332 332 332 332 332 332 332 332 331 331 332 331
314 314 314 313 314 314 317 316 317 316 317 318 315 312 313 315 315 317 318 317 323 328 332 339 340 341 341 341 340 338 337 338 341 341 340 340 340 341 340 340 340 339 338 337 337 337 338 338 338 338 338 338 339 339 338 337 336 334 334 336 335 333 333 333 334 333 333 334 333 333 334 333 332 332 333 333 333 333 333 333 333 333 333 333 333 332 332 332 332 331 332 332 332 332 331 331 331
313 314 313 314 313 313 316 316 316 316 316 318 314 311 313 315 315 317 318 317 321 324 329 337 340 341 342 343 343 342 341 341 341 341 342 342 342 341 341 340 338 338 338 336 336 336 337 338 337 337 338 338 339 338 338 338 337 336 335 335 334 334 335 335 334 335 334 334 334 334 333 333 333 332 333 333 332 333 333 333 334 334 334 333 333 333 332 332 331 331 331 332 331 331 332 331 330
314 313 313 313 312 313 315 315 316 315 316 317 314 311 314 316 315 317 317 316 321 322 327 336 341 342 344 345 345 344 344 343 341 343 343 341 341 341 340 340 338 338 338 336 336 335 336 336 336 337 338 337 338 337 338 336 334 335 334 334 336 336 337 336 336 336 336 335 334 334 333 333 333 332 333 333 333 332 333 333 334 334 334 334 333 332 332 331 331 331 332 331 330 331 332 331 330
315 313 312 314 312 311 313 314 316 314 315 317 314 312 315 317 315 316 316 317 322 322 327 337 342 343 346 347 345 345 345 344 343 343 341 338 340 341 340 339 339 339 337 336 335 334 334 335 336 337 338 337 336 337 336 334 334 334 334 335 337 338 337 337 336 337 336 335 335 334 333 333 332 332 333 333 334 334 334 334 333 333 333 333 333 331 331 331 332 332 331 330 330 331 332 330 330
318 315 313 314 312 311 311 312 316 315 315 316 315 314 315 317 316 316 315 316 322 321 328 340 344 344 347 347 345 346 345 345 345 342 338 336 338 341 340 339 340 339 337 336 335 334 335 334 335 336 336 336 336 336 336 335 335 335 335 337 338 338 337 336 336 335 335 335 335 334 333 332 332 332 333 333 333 334 334 334 333 333 332 333 332 331 331 332 332 332 332 331 330 330 330 330 330
316 315 314 313 312 311 310 311 314 314 314 315 315 314 315 317 315 317 316 316 322 320 331 342 346 346 348 347 345 345 345 344 342 338 336 335 339 341 339 339 338 336 336 335 334 334 334 334 334 334 335 335 335 336 335 335 336 335 336 336 337 336 335 335 335 333 333 333 333 333 333 333 333 334 333 332 333 334 333 333 333 332 332 332 331 331 332 333 332 332 333 332 331 329 330 330 330
314 315 314 312 311 311 311 312 314 314 315 315 315 313 314 316 315 318 317 319 323 320 332 344 346 346 347 346 345 344 344 341 334 332 335 337 339 339 339 339 337 335 335 334 333 333 332 333 333 333 333 334 336 336 336 336 336 335 334 335 335 335 334 334 334 332 332 331 330 331 332 332 333 333 333 332 333 333 333 333 333 332 332 332 331 330 332 333 333 332 332 332 330 330 330 331 330
315 314 313 311 311 311 313 313 314 314 314 314 316 315 314 315 316 318 317 319 324 322 333 344 344 345 346 345 344 345 342 336 330 332 335 336 337 337 338 338 337 336 334 332 331 331 331 332 333 333 333 336 336 336 337 336 335 335 334 334 334 332 332 332 331 331 332 331 330 331 332 331 332 332 332 333 333 333 332 332 332 332 331 331 331 331 332 332 332 333 332 331 330 330 329 329 330
318 315 313 311 312 313 315 315 314 315 316 313 316 316 314 317 317 319 319 321 323 323 334 342 343 342 345 345 343 344 339 333 333 334 333 334 336 336 336 337 338 336 332 330 331 330 330 333 334 334 334 335 336 335 336 335 334 334 333 332 332 331 332 330 330 330 330 330 330 330 331 330 331 331 331 332 332 332 332 331 332 331 331 331 331 331 332 332 332 333 332 331 331 330 329 329 330
320 317 315 313 315 315 316 318 315 314 317 315 315 316 316 319 318 319 323 324 324 325 333 339 342 341 343 344 344 342 338 336 339 336 332 334 336 336 335 336 337 335 331 332 333 332 331 332 333 334 334 333 333 333 335 335 334 332 330 330 330 330 331 330 329 328 328 330 329 329 329 328 327 328 330 330 330 330 331 330 331 331 331 331 332 331 332 332 332 332 332 331 330 330 330 330 331
322 318 316 315 316 315 314 319 318 318 323 320 317 319 323 321 318 319 324 326 326 323 327 333 337 340 342 344 343 341 338 340 342 336 333 335 336 335 335 335 335 332 331 333 334 333 333 333 333 333 332 331 330 333 335 334 333 331 329 329 329 329 329 327 326 325 327 329 328 329 329 328 326 328 330 329 328 329 329 329 329 331 331 331 332 331 331 332 331 331 331 331 330 330 330 331 331
325 322 318 316 316 316 315 319 323 327 331 330 327 327 330 327 319 320 323 325 326 324 324 327 331 335 340 344 342 339 339 341 340 336 334 336 335 335 335 334 332 330 332 333 332 333 335 333 333 333 331 330 330 333 334 332 331 330 328 328 327 327 326 325 325 326 328 329 328 328 328 327 325 326 327 326 326 328 329 328 328 330 331 331 331 331 331 332 331 330 330 330 330 330 331 331 331
324 325 322 319 317 318 318 317 321 323 322 327 326 320 327 333 322 321 324 321 322 325 325 325 330 335 340 344 343 339 341 340 338 336 335 334 333 334 335 334 333 332 332 332 331 333 335 334 334 334 332 332 331 332 332 331 330 329 328 327 326 325 324 325 325 325 326 327 327 328 327 326 326 325 325 325 326 327 327 328 327 328 330 330 330 330 330 330 330 330 329 329 330 330 330 330 330
319 322 322 319 318 318 319 317 315 316 317 324 326 318 323 330 322 322 324 319 321 325 326 327 333 338 340 341 342 340 340 338 336 334 332 331 330 332 334 333 333 333 332 332 332 333 335 335 334 334 334 333 331 331 331 331 331 329 328 326 324 323 324 324 324 323 324 325 326 327 327 326 325 324 325 325 327 326 327 328 327 326 327 328 327 328 328 329 329 329 329 329 329 329 329 330 330
318 320 318 317 316 315 319 317 313 319 321 322 322 320 319 321 322 325 324 320 324 327 326 332 336 339 339 340 341 338 336 335 332 330 329 329 329 332 332 332 332 333 332 331 332 334 334 333 332 333 334 332 330 331 331 332 330 328 326 323 322 323 324 323 323 323 324 325 324 325 326 325 324 324 325 325 325 326 326 327 326 326 326 326 326 326 327 328 328 329 329 329 329 329 329 329 330
317 319 317 315 314 315 317 315 314 321 324 318 319 320 317 318 323 326 324 319 322 326 330 338 341 340 339 340 339 335 333 331 329 328 329 329 331 332 332 332 332 332 333 332 334 335 332 330 331 332 332 331 330 330 331 331 328 326 324 324 324 325 325 323 322 323 324 323 323 324 325 325 324 325 325 325 324 324 324 325 325 325 326 326 326 325 326 327 329 329 329 329 329 328 328 329 329
317 316 317 315 314 315 315 315 314 318 321 319 320 319 316 320 325 322 320 319 319 325 334 339 341 339 340 340 335 332 331 330 329 328 328 329 331 332 332 332 333 333 333 334 335 334 330 329 331 331 330 329 329 330 330 328 325 325 327 328 327 326 325 324 323 323 322 323 324 325 325 325 324 324 324 325 325 323 324 324 323 324 325 325 324 325 326 327 329 329 329 329 329 328 327 328 328
316 315 315 313 315 317 315 318 316 316 321 323 322 320 316 322 332 327 321 324 326 327 333 338 340 337 338 337 333 331 330 330 330 328 328 329 330 331 331 332 334 334 334 335 334 332 330 329 329 328 328 326 326 328 327 324 325 327 329 328 327 326 324 323 323 323 323 324 325 325 325 325 325 324 324 324 324 324 323 323 323 323 325 325 325 325 325 326 327 327 327 328 328 328 328 328 327
314 316 315 314 318 321 317 315 313 315 323 322 318 319 315 319 331 331 326 330 332 329 332 338 339 336 335 335 332 331 330 330 330 328 328 329 330 330 331 332 333 335 334 334 333 332 330 330 329 327 326 324 323 324 324 324 326 329 328 327 326 325 323 322 322 323 324 325 323 324 325 325 324 324 323 323 323 323 322 322 322 322 322 323 323 323 324 325 325 325 326 326 327 327 326 326 326
315 315 314 314 318 320 318 315 316 319 324 323 316 316 319 324 329 328 330 332 332 330 333 337 337 335 335 334 332 331 330 329 329 329 329 329 330 331 331 332 333 334 334 333 332 331 331 330 328 326 325 323 321 322 326 326 325 327 327 326 325 323 322 322 323 323 324 324 323 325 325 324 323 322 322 322 321 321 321 323 323 321 320 320 320 321 322 323 322 323 324 324 324 323 321 320 320
316 315 316 318 318 318 319 319 318 320 321 321 318 315 321 330 329 326 331 331 330 331 332 334 335 334 335 334 332 331 329 328 328 329 330 330 330 330 331 332 333 333 333 332 331 330 330 329 328 327 325 323 321 324 327 323 321 326 327 325 324 322 322 322 322 323 324 323 324 326 325 324 322 321 322 323 321 320 320 321 322 321 320 319 319 320 320 321 320 320 321 321 321 319 317 316 316
316 316 316 319 320 319 319 319 319 322 323 321 319 318 322 329 333 332 330 329 330 331 332 334 335 334 335 334 332 332 329 328 329 330 330 330 329 329 330 331 332 333 332 332 330 330 329 328 327 328 326 323 322 325 326 322 323 329 327 324 323 322 322 322 323 323 323 324 325 325 325 323 321 321 322 322 321 320 320 320 320 321 320 318 318 318 318 318 317 316 317 318 318 317 316 315 315
322 319 312 316 322 321 319 322 324 323 325 324 321 323 326 332 338 335 327 329 330 331 333 334 335 334 334 333 333 333 332 330 330 331 331 331 329 329 330 331 332 333 332 331 331 330 329 328 327 328 327 325 322 324 326 326 328 330 327 324 323 323 322 323 323 323 324 323 324 325 324 322 320 320 320 319 319 319 318 318 319 319 319 317 317 316 316 316 316 316 315 315 316 316 316 316 316
328 321 312 317 322 321 320 325 325 321 322 323 324 328 330 331 336 331 326 332 331 330 333 334 335 335 334 333 333 333 333 332 331 332 332 331 329 329 330 332 333 332 332 332 331 331 330 328 327 328 328 328 325 323 326 328 329 330 328 325 324 323 323 324 324 324 323 322 323 324 323 321 319 318 318 317 316 316 317 318 318 318 318 317 316 316 315 315 316 316 315 316 316 316 316 316 316
324 317 315 320 323 326 325 324 325 322 322 322 325 331 331 331 335 330 329 334 332 329 332 334 335 335 334 334 333 333 332 331 330 331 331 330 330 329 331 332 332 332 332 332 331 331 330 329 328 327 328 330 328 326 328 329 328 329 329 327 325 323 322 324 324 323 322 322 323 324 322 320 319 318 317 316 315 315 316 317 317 317 317 316 316 314 314 314 314 315 315 315 315 314 314 315 315
318 318 320 325 330 335 331 323 324 326 324 322 325 333 332 332 336 333 330 334 334 330 332 334 334 335 335 334 333 332 331 330 329 329 329 330 330 330 331 331 331 332 332 331 331 331 331 331 330 328 329 329 329 329 330 330 328 329 329 327 325 324 323 323 323 323 322 322 323 323 322 321 319 317 316 315 316 315 315 315 316 316 316 316 315 315 314 314 315 315 315 315 315 314 314 315 315
315 317 317 323 333 335 329 325 324 326 328 325 326 336 338 336 336 333 331 334 333 332 332 334 334 333 333 333 331 330 330 329 328 327 329 329 328 328 330 330 331 331 331 331 331 331 331 332 331 331 331 330 330 331 331 330 329 329 328 327 325 324 323 323 322 322 321 322 322 322 321 321 319 317 316 316 316 315 315 316 316 316 316 316 315 314 315 315 315 315 315 315 315 315 315 315 314
314 316 315 317 325 325 325 326 321 321 331 330 328 337 341 338 336 333 332 333 332 332 332 332 333 332 332 332 331 331 329 329 329 329 328 328 327 327 328 329 330 330 330 330 330 331 332 332 332 331 331 331 331 332 332 330 330 329 328 328 326 324 323 322 322 321 321 321 321 322 321 320 319 317 317 317 317 316 317 316 316 316 316 315 315 315 316 315 315 314 315 315 315 314 315 315 314
316 317 318 317 322 326 325 324 320 319 324 325 329 337 337 334 334 333 332 333 332 331 331 331 331 331 331 331 331 331 331 331 332 331 329 327 326 326 327 329 329 328 329 329 329 331 332 331 331 331 331 331 331 332 332 330 330 329 328 328 327 324 322 322 322 321 321 320 321 321 321 320 319 318 317 317 318 318 317 317 316 317 317 316 316 316 317 316 315 315 316 315 314 314 315 314 314
Wind_Speed
12 8 5 4 4 4 5 2 1 2 2 3 5 4 7 10 10 11 15 13 6 5 2 6 7 10 11 10 12 13 10 6 2 3 3 5 18 30 31 34 35 33 31 26 25 23 22 21 21 22 21 21 21 21 22 22 22 22 22 22 22 21 19 18 18 18 17 18 17 17 17 17 16 15 16 16 16 16 17 17 15 15 14 13 12 13 13 13 13 13 14 13 12 11 11 11 13
11 8 5 4 4 2 2 2 1 2 2 4 6 6 8 6 8 13 15 11 2 1 4 10 12 16 19 13 12 15 13 11 9 8 8 19 26 26 30 33 35 34 30 26 25 23 23 22 22 22 21 21 21 22 23 23 23 22 22 23 22 20 18 18 17 17 17 17 16 16 16 16 16 15 16 16 16 16 16 15 13 14 13 12 12 13 13 12 12 12 13 12 10 10 10 13 16
10 7 6 5 5 3 2 0 2 2 3 5 6 6 8 6 11 13 7 5 3 3 7 13 14 11 16 17 14 13 9 9 13 10 9 20 20 19 28 30 33 33 29 27 24 24 24 23 23 22 21 22 22 22 23 23 23 22 23 23 21 19 18 17 16 16 17 17 16 16 15 16 16 16 16 16 16 15 15 13 13 13 13 11 11 12 11 11 11 12 12 11 9 9 11 14 17
9 7 8 6 2 1 1 1 3 2 3 6 5 5 8 9 12 10 3 3 1 5 8 10 9 7 15 17 10 10 7 6 11 10 7 15 21 23 28 28 31 29 27 26 24 25 24 23 23 21 21 22 22 23 23 23 22 22 23 23 21 19 18 17 16 16 16 16 16 16 16 16 16 16 16 15 15 15 14 13 13 13 12 12 11 11 11 11 11 11 11 10 9 10 13 16 17
9 8 9 6 1 1 1 2 3 4 6 5 4 6 8 7 6 3 3 3 2 6 7 6 5 5 12 10 4 4 3 4 10 15 14 20 30 30 28 30 29 27 26 24 24 26 24 24 22 21 21 22 23 23 24 23 22 23 24 22 19 18 17 16 15 16 16 16 16 15 15 15 15 15 15 14 13 13 12 12 13 13 12 12 11 11 11 11 11 10 10 9 9 12 15 16 17
8 8 9 6 3 2 0 3 3 5 8 6 6 10 11 8 3 3 2 3 3 6 9 8 8 8 9 5 5 3 1 4 8 17 21 26 32 29 30 31 28 25 25 23 25 26 25 24 22 22 22 22 23 23 23 22 23 24 24 21 18 17 17 16 16 15 15 15 15 15 15 15 15 15 14 13 12 11 11 11 13 12 12 12 12 11 11 10 10 9 9 8 10 13 14 15 15
6 4 4 4 3 2 1 4 4 6 8 8 10 12 14 8 2 3 2 3 4 6 9 9 12 13 7 3 5 6 7 9 9 19 27 30 31 29 30 30 28 25 23 24 25 26 24 23 23 22 21 22 23 22 22 21 23 24 22 20 18 17 17 16 15 15 16 15 15 15 15 15 16 15 14 12 12 11 11 12 12 11 10 11 12 11 10 10 10 9 8 8 10 11 11 12 13
7 3 1 2 1 2 2 4 6 7 8 10 12 12 11 6 5 3 3 3 2 1 7 11 14 12 6 7 5 5 12 19 23 30 32 31 30 30 31 30 29 25 23 24 25 25 23 22 23 22 22 23 22 22 21 21 23 24 21 19 18 17 17 16 15 16 16 15 15 14 14 15 15 15 13 12 11 10 10 11 11 11 11 10 10 11 10 9 9 8 7 6 7 7 8 9 11
8 4 1 1 2 3 3 4 7 9 10 12 14 13 8 4 2 3 5 6 3 1 5 11 13 10 6 12 8 2 12 26 32 32 31 30 30 31 31 29 29 27 24 24 25 25 23 23 23 22 22 22 22 21 21 22 23 23 20 19 18 18 17 16 16 16 15 14 13 14 14 14 14 13 13 12 10 9 8 8 9 11 11 10 10 10 9 8 7 7 6 5 6 5 5 6 8
4 4 1 1 2 4 5 5 7 9 12 13 15 12 4 1 2 3 4 5 2 3 9 12 11 12 10 10 7 1 13 28 31 28 28 29 29 29 29 29 28 27 26 26 26 25 24 23 23 23 22 21 21 21 22 23 23 22 20 19 18 18 17 16 16 16 14 13 13 13 14 14 13 13 13 12 10 9 8 8 8 9 10 10 9 9 9 7 7 6 5 5 5 3 3 5 6
2 3 2 2 2 4 5 6 8 8 11 12 14 11 6 5 4 3 3 2 3 2 10 14 10 12 11 7 3 2 16 28 28 25 25 26 25 26 28 28 27 26 27 28 27 25 24 23 23 23 22 22 21 22 23 23 22 21 20 19 18 17 16 16 16 15 14 12 12 13 13 13 12 12 12 11 11 9 9 8 8 8 9 9 8 8 8 8 7 6 5 5 4 3 3 4 4
2 3 2 2 3 5 6 7 8 10 10 11 12 7 7 7 5 4 2 1 1 3 3 12 10 10 10 4 2 4 15 23 26 25 24 25 25 26 27 28 27 26 28 29 28 26 25 24 24 24 24 23 22 23 24 23 22 21 20 19 17 16 16 16 15 14 12 12 12 12 13 13 12 12 11 10 10 9 9 9 7 8 8 8 7 7 8 8 7 6 5 5 4 3 2 3 4
3 4 2 3 4 4 7 7 8 9 8 9 8 2 6 7 5 5 5 0 1 4 1 13 13 9 8 4 4 5 10 19 25 26 25 26 26 27 27 26 25 24 28 29 29 27 26 26 25 24 24 24 23 24 23 22 21 20 19 18 17 16 16 15 13 12 11 11 12 13 13 13 12 11 10 9 9 9 8 8 7 7 7 6 6 6 6 6 6 5 5 4 3 2 1 2 3
4 3 2 4 4 5 6 7 8 7 6 6 2 3 3 5 2 3 6 3 4 2 6 12 11 11 7 4 5 3 7 19 26 25 24 25 26 29 27 25 25 24 27 28 29 28 26 26 26 24 23 24 23 23 22 20 19 19 19 18 18 17 16 14 12 11 11 12 12 13 13 12 11 11 10 8 8 8 7 6 6 6 6 5 5 4 3 3 4 3 2 2 2 1 0 1 2
5 2 3 4 4 5 5 7 8 6 5 5 2 1 3 2 2 4 5 5 7 5 9 8 4 7 7 7 6 6 12 23 27 26 27 28 28 29 27 26 27 27 27 28 29 27 27 26 26 25 24 24 24 22 20 18 18 18 19 19 18 17 15 13 12 11 12 12 12 13 12 11 10 10 10 8 7 7 6 6 5 5 5 5 4 2 1 1 1 1 1 1 1 1 0 1 2
5 2 3 4 5 6 5 7 8 5 6 5 4 1 4 1 1 5 3 5 8 5 8 4 2 5 9 8 11 15 20 26 30 31 31 29 27 27 27 26 26 26 26 26 26 25 26 27 26 25 24 24 23 22 20 19 18 18 19 19 18 17 14 13 12 12 12 13 12 12 11 11 10 10 9 7 7 5 5 5 5 3 3 4 3 1 1 2 3 3 1 0 2 1 1 2 3
4 4 4 4 5 6 7 7 6 4 4 3 6 4 5 3 2 4 4 11 12 8 9 6 4 5 8 12 21 25 25 29 34 32 29 26 25 24 25 25 22 23 24 23 23 25 26 26 26 24 23 23 23 22 22 21 20 20 20 19 17 15 14 13 13 12 13 13 12 12 11 10 10 9 8 7 7 5 5 5 4 3 2 3 3 3 4 5 6 5 3 2 1 2 3 3 3
4 3 5 5 6 7 9 9 6 4 3 4 5 6 6 3 2 1 4 14 15 11 9 7 8 9 13 22 30 29 25 29 33 27 23 22 22 20 20 19 18 20 25 25 24 26 26 25 26 25 23 23 23 22 23 23 22 21 20 18 16 15 14 13 13 13 13 13 12 12 11 10 10 9 8 7 7 6 6 5 4 3 2 2 3 4 6 7 8 7 5 4 2 2 3 3 2
4 3 5 5 7 10 10 10 10 8 4 5 5 4 4 4 4 2 2 10 13 11 8 11 14 13 16 22 27 26 24 29 31 24 19 20 21 20 19 16 16 21 25 25 25 26 26 26 26 25 24 23 23 23 23 23 22 20 19 17 16 15 15 14 13 13 13 13 12 11 10 10 10 9 7 7 6 6 6 5 4 3 2 1 2 4 6 6 7 7 6 5 5 4 4 4 3
5 4 4 6 9 11 12 12 13 11 4 3 3 2 2 3 1 2 3 7 10 9 6 11 14 13 15 16 20 24 26 26 27 24 19 20 19 17 20 19 19 22 23 25 26 26 25 25 25 25 25 24 24 24 23 22 21 19 18 16 16 16 16 15 14 14 14 12 11 11 10 9 9 9 8 7 6 6 5 5 4 3 2 1 1 3 4 5 6 6 6 6 5 4 3 2 2
4 5 6 9 8 11 14 13 13 11 4 1 2 2 3 2 1 3 5 5 5 6 6 11 14 15 16 15 16 20 22 19 19 20 18 18 15 15 19 20 20 20 22 25 26 25 24 23 25 25 24 24 24 24 23 22 21 19 18 17 17 17 16 15 15 15 14 12 12 11 10 9 9 9 8 7 6 5 5 4 4 3 3 2 1 2 3 5 5 5 4 3 2 1 1 3 6
5 6 9 12 10 12 14 11 11 9 6 5 4 4 4 3 4 2 6 3 3 5 7 12 14 16 17 16 16 18 16 13 12 15 14 14 15 16 17 17 17 19 21 23 24 25 24 22 24 25 25 23 23 23 21 21 20 19 18 17 18 18 16 15 16 16 14 12 12 11 11 10 10 10 8 7 6 5 5 5 4 3 3 2 2 2 2 3 3 4 2 1 3 4 4 6 8
6 6 9 12 12 13 14 11 9 6 5 7 7 5 5 4 5 4 5 6 6 8 9 13 13 14 18 17 17 15 13 11 9 11 12 14 17 18 18 16 17 19 20 20 22 23 22 22 24 25 25 23 21 21 20 20 20 20 19 18 18 18 17 17 17 16 13 13 13 12 11 11 10 9 8 7 6 6 6 5 4 4 4 3 3 4 3 3 3 3 3 4 5 6 7 7 6
9 8 9 11 11 12 12 12 11 4 2 3 4 8 7 1 4 5 4 9 11 11 9 12 13 15 18 17 15 13 11 9 8 10 10 11 13 15 18 18 19 20 20 20 21 22 22 24 25 25 25 23 22 22 21 20 19 20 19 18 18 17 19 18 16 15 14 14 14 12 12 11 9 9 9 8 7 7 6 6 5 5 5 5 5 5 6 6 5 5 5 6 6 6 7 6 5
9 10 10 10 9 11 11 12 9 3 4 2 1 7 8 3 3 6 3 9 12 14 10 13 15 15 17 17 14 12 11 9 8 10 11 9 9 12 18 21 21 21 22 22 22 22 24 26 26 25 24 23 24 23 22 21 20 21 19 17 17 16 16 15 14 15 15 15 14 12 11 11 10 9 9 8 8 7 5 5 5 6 6 7 7 6 7 7 6 6 6 6 5 6 6 5 5
7 9 10 10 10 11 11 12 9 4 4 6 5 6 8 4 4 6 3 9 12 16 14 15 17 14 15 16 14 14 13 11 10 11 14 14 12 13 18 20 20 21 23 24 23 23 25 27 25 25 25 25 24 22 21 20 20 22 20 17 16 15 14 14 15 15 15 15 12 11 11 11 10 10 9 8 8 5 4 5 6 7 7 8 8 8 9 9 7 5 6 5 4 5 5 5 6
8 10 10 12 12 11 12 13 10 6 1 5 4 4 6 4 2 4 4 11 14 16 16 17 17 14 14 14 13 13 13 12 12 12 14 16 15 15 17 18 20 22 24 25 25 25 27 28 25 25 27 26 23 22 21 20 20 22 21 18 16 14 14 14 15 14 13 13 11 10 12 12 10 11 10 9 7 5 4 5 6 7 6 6 6 8 9 9 7 6 5 4 3 4 5 5 6
10 11 10 11 12 11 12 12 9 6 1 2 2 4 5 4 4 6 5 9 13 15 17 18 15 12 14 13 11 10 10 13 16 13 12 15 16 17 18 20 23 24 25 28 29 28 28 29 26 25 27 26 24 23 21 20 20 21 21 19 16 14 13 12 13 13 13 13 11 10 11 11 10 11 11 9 8 6 4 5 6 5 5 5 5 7 7 6 5 4 4 3 2 3 5 3 4
9 10 10 10 10 10 10 9 8 5 3 4 4 5 6 4 6 8 9 8 10 13 15 17 13 12 13 11 10 8 9 14 17 14 14 17 17 19 20 21 25 24 26 30 32 31 29 29 26 25 27 25 23 22 22 22 20 19 18 18 16 14 13 12 12 13 13 12 12 11 10 11 10 11 11 10 8 6 4 4 4 3 3 4 5 5 5 4 3 3 3 2 1 2 3 2 3
6 7 6 6 7 7 7 6 7 5 5 6 6 4 7 6 9 9 9 9 9 12 14 15 12 11 11 9 8 8 10 12 14 16 19 20 19 21 21 22 26 24 26 31 33 32 30 28 25 26 26 22 21 22 23 22 21 19 16 16 16 14 13 12 11 12 11 10 11 11 9 9 10 11 11 11 8 5 4 3 3 2 2 2 3 4 4 4 3 3 2 1 0 1 2 3 2
4 6 4 4 4 5 5 5 7 6 6 8 7 4 7 7 10 10 9 10 9 10 13 16 13 12 10 9 9 9 9 10 14 20 22 22 22 23 22 24 26 24 27 30 31 31 30 26 24 24 23 20 21 22 21 20 20 21 19 18 17 14 12 12 10 10 9 7 8 9 8 8 8 9 10 9 7 5 4 3 3 3 3 3 4 3 4 3 3 4 3 1 1 1 3 3 3
4 5 4 4 4 4 6 6 8 8 6 8 7 4 6 6 9 10 10 9 9 9 10 16 15 13 11 9 10 9 8 10 16 21 21 23 24 24 24 26 27 26 28 30 29 28 26 22 21 22 22 21 22 20 17 17 18 19 19 19 17 13 13 12 10 10 9 6 5 6 6 8 7 7 7 5 5 6 5 3 4 5 4 5 4 4 3 3 2 3 3 2 2 2 3 3 5
3 4 4 4 4 4 5 7 10 11 7 8 9 6 3 6 10 10 12 8 12 10 10 17 15 13 12 9 10 9 9 10 13 17 21 24 24 25 24 25 26 26 27 28 25 22 20 21 22 22 22 22 21 18 16 17 17 17 18 18 17 14 12 12 11 11 9 7 6 5 6 7 6 6 6 4 6 8 6 5 6 5 5 5 4 3 2 3 2 1 1 1 2 2 2 3 5
4 4 5 5 6 5 5 6 9 12 10 9 11 8 4 7 10 10 11 10 12 12 12 18 15 12 12 9 10 9 9 10 10 14 22 22 24 25 22 22 24 22 24 25 23 22 22 24 25 22 21 22 21 18 17 17 17 17 18 18 16 15 13 13 14 12 11 9 7 6 5 4 5 5 4 5 9 9 7 6 7 6 6 5 4 2 3 3 2 1 1 1 0 1 2 2 4
6 6 5 5 7 8 8 7 8 11 12 12 10 9 9 9 10 10 8 6 9 11 13 17 16 14 13 11 11 10 10 11 10 17 22 20 25 25 20 21 23 19 21 25 25 26 26 27 26 22 22 23 22 20 18 17 17 17 18 17 16 16 14 15 17 14 12 12 10 8 6 5 5 5 5 6 9 8 7 6 6 7 6 4 3 3 3 3 3 2 2 1 1 1 2 3 4
11 10 5 6 6 7 11 11 11 9 12 14 10 10 13 12 10 12 8 4 4 9 13 14 14 13 12 11 10 11 12 11 15 25 26 23 26 24 20 22 22 17 21 27 27 26 27 29 28 24 24 24 22 21 20 19 18 18 18 16 15 15 15 16 16 14 13 12 11 10 8 7 7 7 6 7 7 6 5 4 5 6 5 4 4 4 4 3 4 4 4 3 2 2 4 4 5
11 10 7 8 6 6 10 12 14 10 10 14 12 11 14 13 10 13 10 7 5 9 14 14 14 12 11 11 10 11 11 11 18 27 29 26 21 21 22 25 23 18 22 27 28 27 26 28 29 27 25 25 23 22 21 20 19 18 16 15 15 15 16 18 17 15 14 13 12 11 9 8 8 7 7 7 6 5 4 4 4 4 5 5 5 5 5 4 4 5 4 4 3 4 5 4 5
10 8 7 8 6 7 10 13 15 9 8 10 11 10 11 11 11 12 9 6 5 7 13 14 15 13 11 12 12 12 11 10 14 17 19 20 19 20 23 25 24 20 22 26 29 30 28 27 28 27 24 23 23 22 22 20 18 17 15 15 18 18 18 19 19 16 16 15 13 12 10 9 8 8 7 7 6 5 5 4 3 4 4 5 5 6 5 5 5 5 5 5 5 5 5 6 5
9 6 5 6 6 7 10 15 15 8 7 8 11 9 8 10 12 11 8 9 8 8 14 17 17 15 13 14 14 14 13 12 13 11 11 17 20 21 22 23 22 21 23 25 27 31 32 29 28 27 25 24 24 24 22 19 16 16 16 17 19 18 18 18 16 14 15 15 14 12 10 9 8 9 10 9 8 7 6 5 4 4 4 4 5 6 6 6 5 6 5 6 7 7 6 6 4
7 5 5 6 7 5 6 11 10 2 5 7 9 5 4 7 8 8 6 8 9 9 13 16 17 16 16 16 15 15 15 13 13 11 9 14 19 22 22 21 19 21 23 25 26 29 31 31 29 29 28 27 27 25 20 17 15 16 18 19 19 20 19 17 14 13 14 14 14 12 10 9 8 9 11 10 8 7 7 6 5 4 4 4 5 5 5 5 4 6 6 6 7 9 8 6 4
4 5 6 5 9 7 5 9 9 5 3 6 7 3 5 3 3 5 5 4 7 7 9 11 12 14 15 15 14 15 16 14 12 13 10 11 17 21 22 21 18 19 23 24 24 27 30 32 31 29 29 28 26 22 19 18 18 20 22 23 23 22 21 19 16 15 16 16 13 12 12 10 10 12 12 10 8 7 7 6 5 4 5 5 5 5 4 3 3 5 6 5 7 8 8 7 5
4 4 6 8 11 10 9 11 8 6 4 2 6 4 5 5 2 6 6 4 7 6 8 8 9 13 14 13 13 13 12 10 11 12 10 13 18 20 23 23 20 20 23 22 23 26 29 30 30 30 30 28 25 22 21 22 22 24 27 26 25 23 21 18 17 17 18 16 14 13 12 11 11 12 11 10 10 9 8 6 5 6 6 6 5 4 3 4 4 4 4 4 6 7 7 8 7
3 4 6 9 11 8 8 10 6 0 3 2 5 5 3 5 5 7 5 6 6 6 8 8 12 13 12 11 11 10 8 10 12 12 12 15 17 16 17 20 21 22 22 22 23 25 26 27 30 33 33 31 27 25 25 25 24 23 24 23 22 22 20 17 15 16 17 17 15 14 13 11 10 9 9 10 11 11 10 8 6 7 8 9 8 7 5 6 6 4 3 4 5 6 6 7 8
4 4 7 12 11 8 7 6 6 3 3 1 3 6 2 3 6 8 7 5 3 7 8 9 13 13 12 11 10 9 12 13 13 15 15 14 14 13 14 16 17 21 22 22 23 24 25 27 30 33 33 31 29 28 27 26 25 23 23 22 21 20 20 18 17 17 18 17 14 13 13 10 9 9 10 11 12 11 10 11 9 7 9 11 9 7 7 8 8 7 6 5 4 4 5 6 7
5 6 9 12 11 10 6 5 6 3 4 2 3 5 3 3 6 7 6 5 4 7 9 13 14 14 13 11 10 13 15 14 15 15 13 13 14 17 21 19 17 22 25 24 23 24 26 28 30 31 31 30 30 30 28 26 25 25 24 22 21 21 21 19 18 18 17 14 13 14 14 12 11 12 12 12 12 10 10 11 11 9 11 12 9 7 7 8 9 9 8 8 7 7 6 6 6
6 8 9 9 9 10 7 5 5 1 3 3 5 3 3 3 6 5 4 5 7 6 9 14 15 14 13 12 14 15 13 14 15 15 14 16 20 25 30 29 26 27 26 24 23 25 27 28 30 31 29 30 31 30 28 27 27 26 22 21 24 25 22 19 18 17 15 14 15 15 14 13 12 12 13 12 12 11 11 10 11 12 12 11 10 10 9 9 10 10 10 10 10 10 9 9 8
6 7 7 7 7 7 6 5 3 3 1 5 6 3 3 2 5 4 4 6 8 8 9 13 14 14 13 13 15 14 11 12 13 13 13 17 22 27 31 30 30 30 28 26 26 27 29 30 30 30 29 29 30 29 28 28 28 25 22 23 26 25 22 20 19 18 16 15 16 16 14 13 11 10 11 12 12 13 12 10 10 12 13 12 13 12 11 11 12 12 12 13 12 12 12 11 11
7 5 4 4 5 4 3 1 3 2 4 5 6 4 4 3 5 4 3 4 3 10 12 13 14 14 13 14 14 11 10 10 11 11 11 13 16 20 24 26 28 31 31 31 31 31 31 31 31 31 30 30 31 29 29 30 29 25 22 23 23 22 21 21 21 19 17 15 15 15 15 14 12 10 9 9 12 13 13 12 10 12 14 14 13 12 11 11 13 13 13 14 14 13 13 12 11
6 5 3 2 2 3 3 1 3 4 4 5 6 5 4 4 4 3 6 9 6 9 14 15 14 15 15 16 15 11 9 10 10 11 12 12 12 15 19 23 26 30 33 35 35 34 34 32 32 33 32 31 30 29 28 28 26 22 21 21 21 21 21 21 20 19 16 15 15 17 16 14 13 12 11 10 11 12 13 13 11 12 14 13 12 12 11 11 12 13 13 14 14 14 14 13 13
5 5 4 3 1 0 2 3 2 3 4 6 7 6 5 2 2 4 7 8 7 10 14 14 15 16 16 17 15 12 11 10 10 12 13 12 12 15 18 21 23 26 30 33 34 34 33 31 31 31 31 31 30 29 26 24 23 21 20 21 22 21 21 20 19 18 17 15 16 17 15 14 15 15 14 13 12 13 12 12 12 13 13 13 13 13 12 12 12 12 13 14 14 14 15 15 15
4 4 4 4 4 4 3 2 3 3 4 3 2 3 3 2 1 4 6 10 9 11 11 12 15 15 16 16 14 12 11 9 9 11 11 11 13 16 18 20 20 18 18 22 24 24 24 25 26 27 28 29 29 27 24 23 22 20 20 22 22 21 20 19 19 17 17 16 15 15 15 16 17 16 15 13 13 14 14 13 13 14 13 14 15 14 12 12 12 13 14 14 15 15 15 17 16
2 2 2 4 4 5 3 2 4 4 0 2 1 2 2 3 3 5 6 11 11 12 11 13 15 14 14 13 12 11 9 8 8 8 9 8 10 13 14 14 15 14 13 16 17 18 19 23 24 24 26 28 27 25 22 21 21 19 20 22 21 20 19 18 19 17 16 15 14 14 17 17 17 17 16 14 14 15 15 15 15 15 14 13 14 14 14 13 13 14 14 15 15 15 15 17 17
2 1 3 6 5 7 3 1 2 3 3 3 1 2 2 2 1 4 8 13 11 12 12 11 12 13 13 11 10 9 8 9 8 7 7 7 8 10 11 12 14 15 15 15 16 18 20 24 25 23 23 23 24 24 22 20 20 18 19 21 20 19 18 18 18 17 16 15 14 15 18 18 17 17 16 15 15 15 15 15 16 15 14 13 13 14 14 13 13 14 15 16 15 14 15 17 17
3 1 4 3 1 3 3 1 2 3 2 3 2 5 1 2 1 2 9 12 9 12 12 11 11 11 11 9 9 9 9 9 8 7 7 7 8 12 14 15 16 18 19 18 19 21 22 24 25 24 23 21 21 22 21 20 19 18 19 20 19 19 18 17 17 17 16 16 15 17 19 18 17 17 15 15 15 15 15 15 15 15 15 15 14 14 15 14 15 16 16 16 15 15 16 17 16
5 5 4 2 2 1 1 2 2 1 2 3 1 3 2 2 2 1 7 9 8 11 11 11 11 10 9 8 8 10 10 9 9 8 8 7 9 13 18 20 21 20 21 21 21 21 21 20 21 22 22 20 20 20 19 19 18 17 18 19 18 18 17 16 16 17 16 16 16 18 19 18 17 16 16 16 15 14 15 15 15 15 15 16 15 15 16 16 16 16 15 15 16 16 17 17 16
5 3 1 3 3 3 1 2 3 3 2 2 1 2 2 2 4 2 5 8 9 10 10 9 9 9 9 7 7 8 8 9 8 7 7 8 10 13 16 20 22 22 21 20 19 17 16 15 16 18 19 18 18 17 16 17 18 17 17 17 17 17 17 16 16 18 17 15 16 17 17 17 16 16 17 16 15 14 15 15 14 15 16 16 15 16 16 16 16 16 16 16 15 14 15 15 15
4 4 2 2 1 2 2 1 2 4 3 2 1 1 3 4 3 2 5 6 7 10 11 8 8 10 10 6 6 6 7 8 7 7 6 6 8 10 10 12 16 18 18 18 16 13 12 12 12 14 17 18 18 17 16 16 16 18 18 17 17 17 16 15 16 17 16 15 15 16 16 15 16 16 17 16 15 14 14 14 15 16 16 16 15 15 15 15 15 15 14 14 13 13 14 14 14
2 2 3 3 2 3 3 1 3 3 3 2 4 2 3 4 2 4 5 4 5 9 11 9 8 9 9 6 5 5 6 7 7 8 9 7 9 10 8 9 12 14 13 13 12 9 9 11 13 15 17 17 16 16 16 16 15 18 20 17 16 18 17 15 16 16 16 15 15 16 16 15 16 16 16 16 15 14 14 14 15 15 14 14 14 13 14 15 15 13 12 14 15 14 14 13 13
Wind_Direction
211 213 211 229 264 303 302 229 132 253 205 265 249 238 241 227 238 264 266 273 291 290 5 84 66 75 82 87 94 75 51 29 41 99 126 133 107 118 132 135 139 143 144 144 145 144 145 146 147 146 145 145 146 148 147 144 143 142 138 136 135 136 131 124 121 119 118 122 126 125 123 119 113 111 110 107 105 103 102 105 104 104 106 104 99 95 95 97 95 95 97 95 91 89 89 92 100
203 215 212 230 267 284 285 182 153 241 166 267 245 225 249 241 241 249 258 270 262 261 42 68 64 80 89 83 78 68 57 43 61 80 103 117 107 110 125 133 140 142 142 143 143 140 140 142 144 144 143 144 147 148 147 145 144 142 139 137 137 136 131 125 123 120 119 123 128 130 128 123 117 113 113 111 108 103 101 106 109 111 111 105 101 102 101 98 97 97 98 96 93 93 91 96 107
207 231 247 253 255 225 290 238 210 236 161 246 247 229 258 260 248 252 260 245 201 111 65 61 54 62 80 72 60 65 73 67 81 90 109 116 106 111 125 133 137 137 140 141 141 138 137 140 142 140 141 144 146 148 147 146 145 142 140 138 137 135 130 127 124 121 120 122 127 130 132 129 123 119 118 117 115 113 114 117 113 113 115 111 105 106 106 102 101 102 100 97 95 94 95 102 112
218 229 257 263 258 209 289 229 198 218 206 243 255 245 243 241 252 252 207 163 282 58 69 69 55 32 73 79 72 73 73 75 98 109 113 112 113 121 126 132 132 132 136 138 140 136 135 137 137 138 141 144 146 148 148 147 145 142 140 139 137 135 132 129 125 121 120 121 121 123 129 132 129 125 124 123 123 124 125 122 115 113 115 116 114 112 111 108 105 104 102 100 99 97 100 108 117
228 228 248 252 261 230 187 239 200 200 227 242 271 276 250 252 297 268 175 102 41 55 61 81 90 46 65 70 74 85 52 52 87 101 99 107 118 123 127 130 128 127 131 136 139 134 134 135 135 139 142 143 147 150 149 147 144 141 141 140 138 136 135 131 126 121 120 120 119 120 125 130 130 129 128 126 126 127 127 125 120 119 120 122 124 122 117 113 109 105 106 105 103 101 103 111 120
232 244 253 241 256 300 250 255 240 236 236 238 260 273 267 274 350 88 91 43 44 63 68 81 106 92 73 59 61 68 133 104 88 102 107 113 121 124 127 129 125 126 130 136 137 133 135 136 137 139 140 144 148 150 149 146 143 143 142 140 139 138 137 133 127 123 122 121 121 122 123 124 126 128 127 125 125 123 121 121 119 122 130 129 122 120 118 115 112 107 109 105 101 101 102 112 121
226 258 260 214 258 287 241 255 257 261 248 240 244 255 266 268 198 132 78 40 14 52 86 98 108 96 84 98 70 39 80 106 102 111 117 122 124 124 127 128 125 126 132 135 135 135 137 138 136 138 141 146 149 150 148 143 142 145 144 142 142 141 138 134 129 128 127 125 126 125 123 123 124 125 123 122 120 120 117 116 115 118 127 129 123 119 119 118 115 115 115 106 102 98 94 105 118
229 250 296 160 247 239 215 258 256 261 260 255 256 262 262 229 175 145 80 77 32 65 111 114 105 87 75 95 90 23 74 100 107 113 119 124 125 125 128 128 126 129 133 135 135 135 137 137 136 139 143 147 149 148 146 142 145 147 147 146 144 144 140 136 134 134 132 131 133 131 129 128 128 126 122 118 116 119 121 120 120 120 119 124 128 126 125 122 119 124 122 111 108 97 86 99 112
226 219 304 208 224 252 242 253 251 254 259 259 262 266 259 219 162 86 73 91 119 242 115 119 105 99 103 89 95 29 80 104 111 116 121 124 126 127 129 127 129 131 133 135 135 136 137 139 138 141 144 147 147 145 144 144 148 150 149 149 146 146 144 142 141 140 138 136 137 134 134 133 130 127 123 118 116 119 121 122 126 130 128 126 130 131 133 132 130 131 124 118 121 105 83 94 101
208 191 248 264 215 255 257 251 253 254 254 256 257 252 218 116 53 49 49 86 73 359 82 91 85 106 113 89 92 51 98 112 114 115 121 123 125 129 129 128 134 133 132 135 134 135 137 140 141 142 143 144 145 143 144 147 152 154 151 149 148 149 149 148 146 144 142 139 138 136 139 137 132 130 127 122 118 117 117 119 127 139 143 140 138 137 140 144 142 133 119 121 132 118 80 77 83
198 203 198 277 254 250 251 253 256 259 259 259 260 244 165 121 89 73 29 2 326 357 103 91 87 109 101 87 91 88 109 116 118 117 123 124 118 121 124 128 136 134 133 136 134 135 139 142 143 142 143 142 144 146 148 152 155 154 151 149 150 153 152 150 148 147 144 142 140 138 142 139 135 135 131 125 121 117 118 121 125 138 147 149 148 143 142 145 145 137 120 116 122 110 79 63 72
238 231 168 230 237 236 247 255 259 265 268 263 265 252 154 122 101 121 94 324 335 292 160 117 131 122 100 104 138 122 106 113 122 120 118 111 103 106 113 118 122 126 134 139 137 139 143 143 144 145 146 145 146 150 154 156 156 152 150 151 153 155 153 150 149 148 146 144 139 139 143 140 139 139 134 130 123 117 120 124 123 130 140 148 149 143 139 141 145 144 133 124 122 114 91 52 69
233 237 181 228 229 236 252 258 265 271 280 272 263 197 136 118 126 158 126 147 34 310 308 125 140 116 104 125 127 140 111 117 122 114 109 104 104 109 108 109 114 125 136 143 142 142 145 144 144 146 149 149 150 155 157 157 154 150 150 155 156 153 151 150 150 149 147 144 140 143 146 143 141 139 141 137 125 117 117 121 120 122 130 139 140 136 135 140 146 147 144 134 127 124 112 24 65
219 238 213 253 256 251 255 260 266 273 282 279 269 118 107 99 137 126 102 41 18 62 90 109 123 94 98 134 128 159 132 129 118 108 111 109 113 116 111 115 126 137 140 143 142 143 147 147 145 146 150 151 153 157 156 155 151 149 154 158 154 151 151 150 148 145 145 145 144 146 145 145 144 143 148 143 128 119 115 117 116 117 121 124 126 132 136 140 147 148 147 138 127 111 35 22 87
208 245 238 258 272 267 264 263 265 273 268 258 284 114 99 101 153 72 81 68 52 86 93 91 96 95 143 160 152 171 143 132 116 107 111 111 110 110 113 122 132 141 141 142 142 145 148 147 149 151 154 154 156 157 154 151 149 152 157 157 153 152 152 147 143 143 145 148 148 144 143 147 147 146 150 146 134 122 121 124 123 119 113 112 112 131 151 119 110 95 92 153 161 80 26 152 133
200 231 247 262 266 269 266 265 272 277 261 255 290 151 108 34 113 83 64 84 75 64 72 59 0 123 162 157 147 150 140 127 113 107 106 105 101 106 122 128 132 139 138 140 143 145 147 150 155 154 154 157 158 156 150 147 147 154 158 157 156 154 153 147 142 144 146 146 146 144 143 146 145 147 149 146 138 132 135 137 141 134 116 110 93 88 55 36 43 39 44 254 248 243 195 178 163
201 214 242 267 260 262 262 259 269 272 277 322 342 21 65 21 71 104 94 85 83 67 61 51 32 101 133 133 135 138 137 124 110 103 96 94 98 114 133 132 130 135 139 144 146 147 151 156 155 150 151 157 158 155 153 150 150 157 159 158 158 155 152 150 146 146 147 145 144 144 143 142 142 146 149 147 144 146 148 149 155 145 134 121 83 61 52 51 53 52 58 65 189 209 193 183 173
212 200 222 246 251 253 255 256 275 303 355 9 352 23 35 31 76 28 93 97 94 86 73 64 54 68 98 117 127 132 132 114 98 93 91 101 119 136 144 134 124 135 147 150 148 150 155 156 151 150 153 158 157 157 158 155 155 157 157 158 155 153 153 154 151 148 148 147 148 149 148 147 148 151 152 151 148 147 147 151 157 153 150 111 73 63 61 62 56 57 63 69 106 141 153 152 139
223 208 217 230 242 250 260 274 292 303 344 2 359 47 16 5 71 16 66 106 104 98 91 84 77 81 97 111 121 123 112 97 97 104 110 128 148 153 147 142 134 141 151 148 145 150 154 153 152 153 153 157 157 159 159 157 158 157 156 157 151 152 158 158 153 151 153 153 156 157 156 157 158 157 151 149 149 149 152 156 161 164 155 104 65 65 71 71 61 62 67 74 93 106 118 107 78
227 213 231 239 239 255 264 269 278 279 287 12 11 72 34 356 88 148 57 75 96 108 116 104 101 108 108 112 117 107 94 97 114 126 136 150 154 147 146 153 150 148 150 147 146 149 153 153 153 153 152 156 158 159 160 159 160 159 159 156 152 157 162 158 155 158 161 163 163 163 165 165 165 162 151 152 156 154 157 162 169 169 156 147 51 56 70 71 66 71 72 83 92 96 113 72 347
222 207 229 250 250 262 260 259 278 291 306 86 118 61 37 337 258 120 82 52 90 119 135 123 122 125 119 118 112 97 92 106 128 140 152 154 138 133 151 159 152 146 149 149 149 150 154 154 154 153 154 160 162 161 163 163 161 161 161 159 159 164 162 159 161 167 169 170 167 169 175 171 173 174 162 162 166 164 162 164 174 179 176 170 116 71 81 80 85 100 95 99 89 34 336 329 306
236 229 226 242 252 266 270 279 300 317 356 23 37 47 25 338 326 97 125 139 167 153 141 129 129 129 126 122 106 95 104 122 141 151 150 141 135 141 153 157 146 140 147 150 150 152 154 154 155 155 159 164 167 166 167 165 164 163 163 162 166 166 163 165 169 172 171 171 173 180 184 180 185 185 175 169 169 175 175 176 182 189 196 180 164 161 110 104 119 132 136 273 295 298 309 315 309
236 253 236 236 238 251 272 283 288 318 17 20 359 339 350 353 315 304 132 131 142 148 133 126 130 123 118 113 106 111 126 137 147 148 141 141 149 150 147 149 146 140 142 148 151 153 155 156 157 159 163 164 164 168 169 166 164 163 162 165 171 169 167 171 174 173 169 172 181 191 194 192 191 189 185 178 177 184 189 193 194 194 205 209 190 181 182 199 214 199 211 261 279 289 298 308 316
233 248 248 247 241 247 262 265 265 284 48 45 343 317 329 308 259 315 105 130 125 132 123 117 122 109 108 108 115 131 129 125 135 130 126 139 148 144 140 141 144 142 141 150 155 154 158 162 161 162 164 160 160 165 166 163 159 159 162 169 175 173 171 172 175 175 176 181 188 199 204 201 198 197 192 186 190 196 203 214 217 212 211 222 218 200 203 218 242 239 231 256 272 280 286 307 331
239 239 245 251 253 260 264 267 265 207 139 126 239 284 294 262 272 336 109 139 120 128 127 114 113 102 110 119 126 131 119 126 145 128 112 125 140 132 136 141 144 144 143 154 159 156 162 166 165 166 163 157 157 162 163 159 154 157 164 170 171 171 173 174 179 180 184 190 197 208 208 202 204 204 198 195 198 203 213 230 231 224 222 230 231 220 219 228 245 247 244 259 269 275 283 306 334
247 242 243 244 248 260 264 272 272 224 167 157 176 240 274 294 331 330 141 141 123 132 137 122 115 110 122 132 137 132 132 153 159 143 126 129 147 141 145 151 147 147 149 156 157 157 165 166 163 165 163 158 157 162 162 155 151 155 162 167 165 169 175 180 185 185 189 197 205 209 200 197 202 202 206 204 201 211 224 233 233 228 238 247 243 232 230 236 247 260 260 266 272 289 304 306 326
260 259 249 242 242 250 255 263 268 259 190 138 168 217 257 280 289 284 180 151 143 141 141 132 123 127 138 139 142 137 145 161 151 145 132 132 153 155 154 154 149 154 157 155 155 158 166 166 159 160 162 157 156 163 160 154 154 155 160 166 167 171 178 183 185 187 195 205 211 208 201 203 203 203 215 215 207 220 228 234 235 231 246 253 238 227 230 239 251 263 266 278 285 309 330 318 330
276 282 276 257 250 252 250 258 269 265 229 122 236 252 253 258 225 245 224 166 155 151 145 137 130 134 142 140 141 141 150 151 143 146 143 144 157 157 155 152 152 159 158 155 159 163 168 168 162 159 161 156 156 162 157 159 162 158 159 163 167 175 182 184 184 188 197 208 214 210 205 207 206 207 214 215 212 216 221 229 228 228 237 232 221 222 230 237 245 252 260 286 301 316 335 337 349
278 282 286 282 274 263 248 255 265 237 180 171 205 254 262 243 232 238 235 202 162 158 148 134 130 135 142 144 140 145 152 147 145 153 152 150 154 154 155 157 159 158 153 156 162 167 171 171 164 158 160 158 160 159 153 160 166 163 161 160 167 176 181 183 187 193 196 205 214 211 206 204 207 210 212 215 214 212 221 217 210 212 201 203 220 228 225 218 222 234 250 287 315 315 332 6 4
275 276 273 284 292 274 240 241 259 225 179 185 176 224 257 236 236 238 236 223 171 159 150 134 132 137 140 141 140 147 149 150 151 150 150 149 150 152 155 162 165 156 149 156 162 166 170 169 160 154 156 158 160 156 151 156 162 164 164 165 169 172 175 177 183 193 194 200 208 206 205 204 207 212 216 223 221 216 225 201 181 192 184 206 233 225 218 209 201 206 226 282 196 315 352 32 36
279 278 276 261 267 281 256 232 249 240 191 186 169 200 243 233 235 234 236 229 182 161 147 136 136 138 141 142 142 144 146 148 142 143 147 144 143 149 158 166 166 159 152 156 161 163 164 163 152 147 153 157 156 152 150 152 157 161 164 167 168 164 164 166 167 178 184 190 196 198 201 201 204 207 214 228 235 234 237 192 154 165 197 232 236 222 222 214 191 193 204 228 186 81 30 43 54
264 251 274 257 229 260 271 246 240 240 201 187 183 210 233 232 242 232 236 227 166 160 146 136 139 139 142 144 140 140 145 139 136 145 140 129 139 154 165 167 160 157 157 159 161 156 152 151 144 145 156 156 147 145 147 150 152 158 162 161 159 158 162 162 156 159 167 169 174 183 186 185 185 186 192 213 242 246 250 224 179 178 199 224 235 240 228 192 171 181 197 212 185 127 79 62 62
268 231 236 250 242 242 253 244 240 239 214 193 202 218 221 228 248 238 234 216 147 153 147 137 142 142 141 143 142 144 147 138 140 146 126 123 149 164 169 164 153 153 159 160 156 142 136 144 148 152 156 150 143 143 147 150 150 155 158 155 154 159 162 159 152 154 158 156 155 158 159 159 159 161 158 170 213 225 229 223 212 207 213 220 233 246 202 163 158 152 149 218 209 156 105 75 74
274 247 223 238 241 234 241 237 234 231 215 204 203 208 220 227 245 243 231 212 163 160 146 142 147 141 144 144 142 146 144 142 139 126 119 135 164 171 170 159 149 151 153 154 148 139 143 152 155 154 151 148 147 147 150 152 152 154 156 152 151 158 158 153 152 152 146 141 140 140 140 129 130 143 147 176 198 205 206 208 218 226 227 227 231 211 155 147 155 149 76 355 258 153 122 98 94
245 239 217 229 231 232 245 245 238 221 205 209 200 196 226 237 249 257 242 216 184 169 139 141 148 142 150 148 143 149 140 133 112 95 108 146 171 172 166 152 151 151 141 142 144 143 146 148 149 149 152 153 150 151 153 150 148 150 152 149 148 152 152 152 153 146 133 134 132 129 132 127 134 155 171 184 189 198 209 208 217 227 229 230 233 206 163 151 154 159 178 226 274 123 136 149 129
241 248 232 225 229 233 239 241 244 226 194 203 193 184 214 227 242 257 261 285 235 175 136 136 146 143 150 148 144 147 135 120 106 108 126 161 174 166 151 148 154 145 133 137 135 138 143 145 148 152 157 158 153 152 150 145 145 145 146 149 152 152 149 150 151 143 135 134 126 125 136 137 141 153 158 169 179 191 201 207 216 223 225 226 228 208 184 183 174 165 184 216 231 162 148 160 153
252 265 269 258 255 249 245 242 240 224 185 200 192 178 205 213 227 246 257 284 261 157 135 138 148 144 145 145 143 139 128 116 121 136 153 166 168 156 144 151 152 132 129 129 121 127 142 149 152 155 157 157 154 152 147 145 147 149 153 158 154 148 146 143 139 139 140 137 129 131 136 134 136 138 140 151 165 175 173 189 205 209 219 224 219 193 186 205 188 170 189 205 200 167 156 156 160
261 269 278 282 279 269 269 262 245 215 167 194 185 171 201 206 216 236 234 232 229 139 131 143 149 147 147 145 143 139 124 120 137 152 158 154 154 151 144 149 146 128 124 124 122 131 142 148 151 153 152 152 157 154 148 147 149 153 157 154 147 139 139 137 131 130 133 134 134 135 134 135 139 135 135 144 145 147 156 167 173 177 193 204 202 188 188 205 186 176 184 176 164 156 152 147 146
257 267 279 283 279 288 292 279 259 214 156 185 182 178 206 205 211 225 201 179 189 164 149 153 156 154 153 150 148 143 130 137 156 152 140 144 147 139 135 142 138 123 123 133 139 140 143 148 150 150 150 155 162 154 147 152 157 159 153 149 150 144 138 137 133 131 132 131 130 132 132 132 133 131 131 127 114 113 128 137 138 151 160 173 185 179 183 191 184 187 186 172 164 151 148 149 139
247 244 257 269 270 288 299 290 287 213 131 146 164 177 233 215 212 227 213 179 186 182 156 152 161 160 154 152 149 143 141 155 158 135 131 144 132 122 127 136 126 118 132 150 151 140 139 146 149 152 157 163 163 153 152 161 159 160 157 152 151 142 133 132 130 131 134 133 133 137 141 134 124 132 137 124 108 108 115 115 119 142 155 171 186 177 182 189 186 191 191 186 166 146 147 156 155
265 235 236 261 272 282 299 308 332 4 44 87 104 55 318 267 213 246 264 205 189 182 150 147 155 150 142 139 140 145 153 161 148 131 139 132 114 114 125 131 126 130 148 158 154 143 140 145 149 155 159 162 161 156 160 158 144 143 143 138 136 132 129 131 133 137 139 137 137 139 139 136 122 122 127 119 116 125 126 116 108 142 169 174 183 185 191 190 178 181 179 178 164 152 153 156 163
298 257 240 251 265 281 300 305 335 7 338 14 85 71 302 302 282 260 274 223 199 173 155 148 123 125 130 129 138 153 154 140 119 119 125 110 104 114 125 131 136 147 159 162 157 150 146 147 153 157 160 164 165 163 160 151 142 139 138 135 134 132 132 137 143 147 145 138 136 137 136 136 128 123 121 116 123 127 131 138 116 123 148 147 141 151 176 174 161 167 174 177 172 171 168 154 152
274 264 262 264 263 269 281 295 316 321 237 252 102 117 255 309 306 269 258 230 208 159 155 133 109 118 124 127 142 150 122 89 87 90 92 99 106 117 126 131 138 149 163 166 159 153 152 155 160 161 163 167 168 165 158 151 148 145 142 141 139 137 138 142 145 145 142 138 136 138 135 131 127 128 122 119 128 125 121 135 133 119 123 123 117 110 132 149 135 131 155 174 169 171 173 155 149
233 242 263 273 273 259 243 267 285 240 175 201 122 126 157 296 283 269 262 253 207 155 153 118 115 121 118 130 138 114 91 84 90 91 90 103 110 115 120 122 135 150 161 165 161 160 163 165 165 164 164 165 165 163 159 156 153 148 143 142 142 141 140 137 135 135 136 136 136 138 138 135 131 131 122 117 123 125 119 116 118 133 131 125 126 117 121 134 127 121 126 125 125 142 160 151 145
234 227 241 262 272 266 240 219 261 268 87 323 259 136 128 271 267 279 277 252 212 173 145 117 121 124 122 133 114 93 96 97 102 107 112 126 128 125 126 127 142 155 161 165 166 170 171 168 165 163 162 163 164 164 163 161 155 149 146 146 145 143 140 136 134 133 134 134 139 143 141 135 130 128 126 128 126 123 129 117 100 120 139 132 130 128 119 123 125 126 123 114 108 118 138 141 135
224 225 240 263 272 277 269 219 238 38 99 264 262 157 135 265 270 282 285 243 215 190 140 127 129 129 131 127 106 100 106 107 116 130 142 147 143 139 140 147 157 161 164 169 173 178 174 169 167 165 164 164 165 165 165 161 155 151 149 148 146 143 141 140 137 136 137 138 138 138 135 129 126 119 112 121 133 126 129 126 98 103 127 125 111 110 107 107 114 116 114 111 105 106 119 124 120
213 218 237 262 267 280 270 220 153 86 192 239 238 206 160 262 281 256 255 240 195 162 132 131 131 127 126 112 107 114 115 117 129 139 146 148 147 145 147 154 159 161 167 173 179 180 175 172 171 169 168 168 167 168 165 160 157 154 146 144 147 146 145 145 142 142 144 142 134 129 130 132 133 133 112 102 121 130 127 127 109 102 115 117 107 105 104 104 107 107 106 104 100 100 107 108 107
212 214 210 243 277 325 328 287 114 134 253 226 210 217 182 205 270 264 322 331 163 142 133 138 134 125 117 108 114 123 122 128 135 135 144 149 149 152 153 157 160 162 168 174 179 180 176 177 177 175 175 173 172 172 167 163 162 156 143 143 149 151 150 150 148 148 149 144 138 135 134 131 130 144 144 112 111 124 127 127 119 108 111 115 114 113 113 113 110 109 109 107 105 104 104 103 104
196 208 188 182 310 353 348 306 177 197 246 216 194 214 214 205 257 292 31 29 51 117 131 139 133 122 114 114 122 130 134 139 139 141 153 158 159 164 163 163 165 168 171 174 177 179 179 181 182 180 179 177 177 178 174 168 164 153 142 147 155 154 154 154 151 151 151 146 146 145 138 135 134 139 147 135 119 123 129 132 128 113 106 110 118 118 116 117 114 111 111 111 111 109 103 99 98
166 185 157 145 139 103 271 264 207 207 242 226 193 200 236 235 306 342 59 66 63 97 120 129 127 121 116 118 126 134 145 148 147 152 160 164 166 168 165 166 172 176 174 174 177 180 182 184 183 183 181 178 181 184 179 170 164 154 150 156 161 159 157 155 152 153 154 152 153 152 146 142 140 138 138 137 131 128 130 135 137 127 109 102 116 123 117 115 113 111 111 111 112 108 101 94 93
180 193 156 165 164 165 216 212 181 222 255 262 165 162 216 165 245 319 67 83 76 86 99 105 110 113 114 119 126 133 143 146 146 154 160 163 163 164 167 169 172 176 174 174 178 183 186 185 183 183 182 182 186 186 177 168 163 157 157 163 165 163 159 156 154 154 157 156 154 153 154 150 143 140 140 140 139 134 131 133 137 134 119 103 111 121 119 117 113 110 110 109 109 108 98 89 90
268 229 170 213 193 160 191 187 177 177 94 325 75 141 230 161 221 286 67 77 76 87 89 94 105 110 112 118 125 130 135 133 139 152 155 151 146 152 165 166 162 167 173 177 182 187 189 187 186 186 186 187 188 184 175 168 163 160 163 167 166 164 160 156 155 157 158 157 155 156 154 149 143 141 139 139 142 140 136 133 130 129 125 115 114 118 119 121 119 115 113 108 105 106 99 89 88
296 328 205 230 198 147 142 259 242 106 97 281 143 113 312 89 215 286 75 74 69 79 80 86 99 105 110 116 124 128 127 130 139 148 148 141 127 134 154 157 153 163 177 186 191 192 190 188 188 189 190 191 188 182 179 175 167 164 167 168 167 165 162 160 159 159 158 155 155 157 152 146 144 142 140 137 138 138 138 137 133 131 132 128 124 124 128 131 128 124 119 112 109 110 106 96 91
142 227 222 243 1 103 113 125 348 49 115 263 154 142 159 81 229 309 79 81 76 80 79 78 84 95 105 111 119 125 128 131 127 121 125 128 131 145 157 157 157 169 183 193 196 197 196 193 191 191 191 193 189 184 184 181 174 168 168 169 169 167 166 164 163 160 157 153 154 154 150 147 146 143 141 139 139 140 141 142 140 138 137 133 130 129 130 131 127 122 119 116 115 116 113 106 100
167 206 201 127 65 29 19 126 155 123 180 282 335 136 115 87 251 302 91 103 96 85 81 82 85 95 104 106 113 121 131 131 123 123 133 136 151 169 167 158 159 172 186 197 200 201 201 198 195 192 193 195 192 188 186 183 178 171 167 169 170 171 171 168 164 161 158 152 151 151 148 147 145 143 142 142 144 146 145 144 142 141 140 137 136 135 131 129 127 125 124 124 121 118 116 113 111
219 239 118 94 132 162 157 158 159 146 178 242 343 19 7 269 267 280 127 130 110 94 88 88 96 107 115 123 125 125 130 131 130 135 144 149 162 179 175 160 160 172 184 193 198 205 206 203 198 192 192 195 192 188 184 180 179 174 168 170 173 174 174 171 166 162 159 152 148 149 149 147 144 145 147 148 149 147 144 144 145 146 144 141 140 139 135 132 133 133 129 128 127 123 119 118 117
240 236 194 117 109 148 144 186 174 138 145 185 146 342 281 261 285 39 101 114 109 106 104 101 107 119 128 135 128 122 120 123 130 137 147 158 157 167 171 151 153 168 181 187 195 207 207 201 198 190 186 188 186 183 180 176 177 176 171 171 175 178 177 172 167 161 157 155 151 150 151 148 147 150 153 153 152 150 149 149 148 147 146 145 145 143 141 139 139 140 138 136 134 130 127 127 125
333 219 216 186 140 116 109 312 272 146 128 177 156 147 266 285 341 76 93 89 97 103 107 109 110 118 126 125 119 121 125 132 142 145 152 160 156 162 161 135 146 170 182 185 189 196 196 193 198 193 183 178 174 175 176 172 172 178 178 175 175 179 180 171 164 161 159 158 157 156 155 151 152 157 158 157 156 155 155 153 150 150 150 152 151 148 150 151 148 146 147 148 145 138 135 136 136